1484614800.83,14098,5.25,73016.3,-18.35,-42.75,-44.01,0,*6E
1484614802.1,14099,5.19,73018.8,-18.39,-42.69,-43.75,0,*6A
1484614803.37,14100,5.19,73014.0,-18.39,-42.69,-43.75,0,*6B
1484614804.63,14101,5.19,73014.3,-18.35,-42.75,-43.81,0,*60
1484614805.9,14102,5.19,73018.0,-18.35,-42.75,-44.01,0,*6C
1484614807.19,14103,5.19,73016.5,-18.35,-42.57,-43.81,0,*62
1484614808.43,14104,5.19,73014.0,-18.35,-42.63,-43.87,0,*64
1484614809.72,14105,5.19,73014.5,-18.35,-42.83,-44.01,0,*62
1484614810.98,14106,5.25,73020.3,-18.35,-42.63,-43.81,0,*60
1484614812.25,14107,5.19,73016.3,-18.35,-42.75,-44.01,0,*69
1484614813.49,14108,5.19,73018.5,-18.33,-42.63,-43.67,0,*60
1484614814.75,14109,5.19,73016.3,-18.33,-42.83,-44.01,0,*68
1484614816.04,14110,5.19,73016.3,-18.31,-42.57,-43.81,0,*64
1484614817.3,14111,5.19,73014.5,-18.35,-42.63,-43.81,0,*66
1484614818.51,14112,5.19,73016.5,-18.33,-42.75,-43.87,0,*62
1484614819.75,14113,5.19,73010.3,-18.33,-42.63,-44.01,0,*6D
1484614821.02,14114,5.19,73016.0,-18.31,-42.69,-43.95,0,*68
1484614822.24,14115,5.19,73014.5,-18.33,-43.01,-44.07,0,*68
1484614823.48,14116,5.19,73014.0,-18.33,-42.83,-43.87,0,*6F
1484614824.74,14117,5.19,73016.3,-18.33,-42.83,-44.01,0,*67
1484614825.98,14118,5.19,73014.0,-18.33,-42.75,-44.01,0,*61
1484614827.22,14119,5.19,73014.8,-18.33,-42.95,-44.07,0,*68
1484614828.43,14120,5.25,73018.8,-18.33,-42.75,-43.87,0,*63
1484614829.68,14121,5.19,73016.8,-18.33,-42.45,-43.61,0,*69
1484614830.96,14122,5.19,73016.0,-18.31,-42.69,-43.81,0,*68
1484614832.25,14123,5.19,73012.8,-18.31,-42.69,-43.81,0,*69
1484614833.49,14124,5.19,73018.8,-18.33,-42.63,-43.67,0,*6E
1484614834.74,14125,5.19,73014.8,-18.31,-42.75,-43.95,0,*67
1484614836.01,14126,5.25,73018.3,-18.31,-42.69,-43.95,0,*69
1484614837.26,14127,5.19,73014.0,-18.31,-42.75,-43.95,0,*65
1484614838.47,14128,5.19,73016.5,-18.33,-42.75,-43.87,0,*6B
1484614839.72,14129,5.19,73016.3,-18.31,-42.75,-43.95,0,*6B
1484614840.98,14130,5.19,73016.8,-18.31,-42.75,-43.81,0,*66
1484614842.22,14131,5.19,73014.0,-18.31,-42.89,-43.95,0,*61
1484614843.49,14132,5.19,73016.3,-18.31,-42.75,-44.13,0,*68
1484614844.76,14133,5.19,73014.3,-18.31,-42.75,-44.01,0,*6A
1484614846.02,14134,5.19,73016.8,-18.31,-42.89,-44.01,0,*6E
1484614847.29,14135,5.19,73014.3,-18.31,-42.89,-44.01,0,*6F
1484614848.55,14136,5.19,73014.8,-18.33,-42.83,-44.01,0,*64
1484614849.82,14137,5.19,73018.0,-18.33,-42.95,-44.21,0,*60
1484614851.06,14138,5.19,73018.5,-18.33,-42.83,-44.07,0,*6C
1484614852.34,14139,5.19,73016.3,-18.31,-42.57,-43.81,0,*6F
1484614853.62,14140,5.19,73018.5,-18.31,-42.69,-43.95,0,*69
1484614854.88,14141,5.19,73016.0,-18.31,-42.75,-44.13,0,*6C
1484614856.13,14142,5.19,73016.5,-18.33,-43.01,-44.21,0,*6E
1484614857.37,14143,5.19,73014.8,-18.33,-42.95,-44.07,0,*67
1484614858.65,14144,5.25,73018.5,-18.31,-43.01,-44.13,0,*6B
1484614859.94,14145,5.19,73018.0,-18.31,-42.95,-44.13,0,*66
1484614861.21,14146,5.19,73014.3,-18.33,-43.09,-44.33,0,*61
1484614862.47,14147,5.19,73014.3,-18.31,-42.89,-44.13,0,*69
1484614863.71,14148,5.19,73016.8,-18.33,-42.83,-44.07,0,*6B
1484614864.98,14149,5.19,73016.0,-18.31,-42.69,-43.95,0,*60
1484614866.26,14150,5.19,73014.8,-18.31,-42.57,-43.81,0,*60
1484614867.55,14151,5.19,73016.3,-18.31,-42.69,-43.81,0,*6C
1484614868.8,14152,5.19,73016.8,-18.31,-42.75,-43.95,0,*67
1484614870.09,14153,5.19,73016.0,-18.31,-42.69,-44.01,0,*61
1484614871.36,14154,5.19,73016.3,-18.31,-42.57,-43.95,0,*61
1484614872.62,14155,5.19,73016.3,-18.31,-42.69,-43.75,0,*63
1484614873.89,14156,5.19,73014.3,-18.31,-42.69,-43.95,0,*6E
1484614875.16,14157,5.19,73014.5,-18.31,-42.89,-44.01,0,*6B
1484614876.42,14158,5.19,73014.0,-18.31,-42.57,-43.61,0,*66
1484614877.69,14159,5.19,73016.5,-18.31,-42.57,-43.75,0,*62
1484614878.93,14160,5.19,73018.0,-18.29,-42.57,-43.75,0,*61
1484614880.19,14161,5.25,73018.0,-18.31,-42.57,-43.75,0,*69
1484614881.48,14162,5.19,73016.0,-18.31,-42.57,-43.81,0,*61
1484614882.75,14163,5.19,73016.3,-18.31,-42.69,-43.95,0,*68
1484614884.01,14164,5.19,73016.8,-18.31,-42.57,-43.95,0,*62
1484614885.29,14165,5.19,73018.8,-18.31,-42.69,-43.95,0,*6E
1484614886.57,14166,5.19,73012.0,-18.31,-42.69,-44.13,0,*64
1484614887.84,14167,5.19,73018.8,-18.31,-42.57,-43.75,0,*6F
1484614889.1,14168,5.19,73014.3,-18.29,-42.69,-43.81,0,*6F
1484614890.37,14169,5.19,73016.5,-18.31,-42.69,-43.95,0,*62
1484614891.61,14170,5.19,73016.5,-18.29,-42.75,-43.81,0,*6B
1484614892.87,14171,5.19,73016.8,-18.31,-42.75,-43.81,0,*63
1484614894.16,14172,5.19,73018.5,-18.31,-42.57,-43.81,0,*60
1484614895.4,14173,5.19,73016.0,-18.29,-42.57,-43.61,0,*66
1484614896.67,14174,5.19,73016.5,-18.31,-42.57,-43.75,0,*6D
1484614897.91,14175,5.19,73014.3,-18.29,-42.69,-43.95,0,*66
1484614899.15,14176,5.19,73018.3,-18.29,-42.57,-43.61,0,*63
1484614900.4,14177,5.19,73018.5,-18.31,-42.51,-43.75,0,*68
1484614901.64,14178,5.19,73016.8,-18.29,-42.69,-43.95,0,*6B
1484614902.87,14179,5.19,73016.3,-18.29,-42.51,-43.61,0,*6A
1484614904.09,14180,5.19,73012.8,-18.29,-42.51,-43.61,0,*6C
1484614905.31,14181,5.19,73016.0,-18.29,-42.51,-43.61,0,*6D
1484614906.55,14182,5.19,73016.0,-18.29,-42.69,-43.61,0,*65
1484614907.85,14183,5.19,73016.0,-18.27,-42.45,-43.67,0,*62
1484614909.13,14184,5.19,73018.5,-18.27,-42.51,-43.67,0,*60
1484614910.42,14185,5.19,73018.5,-18.27,-42.45,-43.55,0,*65
1484614911.67,14186,5.19,73018.3,-18.27,-42.51,-43.75,0,*61
1484614912.93,14187,5.19,73016.3,-18.29,-42.57,-43.81,0,*63
1484614914.18,14188,5.19,73018.8,-18.29,-42.69,-43.95,0,*64
1484614915.42,14189,5.19,73018.3,-18.27,-42.51,-43.75,0,*6E
1484614916.67,14190,5.19,73018.5,-18.27,-42.63,-43.95,0,*69
1484614917.91,14191,5.19,73016.0,-18.27,-42.63,-43.87,0,*6B
1484614919.18,14192,5.19,73020.5,-18.27,-42.51,-43.67,0,*67
1484614920.48,14193,5.19,73016.5,-18.27,-42.45,-43.67,0,*63
1484614921.73,14194,5.25,73022.8,-18.27,-42.51,-43.75,0,*62
1484614922.97,14195,5.19,73016.0,-18.23,-42.63,-43.87,0,*6B
1484614924.21,14196,5.19,73016.5,-18.27,-42.63,-43.87,0,*6C
1484614925.45,14197,5.19,73020.0,-18.27,-42.51,-43.75,0,*61
1484614926.75,14198,5.19,73018.5,-18.27,-42.45,-43.67,0,*68
1484614927.99,14199,5.19,73016.5,-18.27,-42.51,-43.87,0,*62
1484614929.29,14200,5.19,73022.0,-18.23,-42.45,-43.67,0,*6E
1484614930.59,14201,5.19,73014.5,-18.23,-42.45,-43.55,0,*6E
1484614931.89,14202,5.19,73016.0,-18.23,-42.45,-43.67,0,*6C
1484614933.19,14203,5.19,73014.8,-18.23,-42.45,-43.67,0,*6D
1484614934.49,14204,5.19,73014.3,-18.23,-42.45,-43.67,0,*6A
1484614935.78,14205,5.19,73020.0,-18.23,-42.45,-43.67,0,*6B
1484614937.08,14206,5.19,73018.3,-18.23,-42.45,-43.67,0,*68
1484614938.38,14207,5.19,73016.8,-18.27,-42.45,-43.67,0,*6D
1484614939.68,14208,5.19,73018.5,-18.23,-42.45,-43.67,0,*66
1484614940.98,14209,5.19,73016.5,-18.23,-42.31,-43.55,0,*65
1484614942.28,14210,5.19,73014.8,-18.23,-42.45,-43.55,0,*6E
1484614943.58,14211,5.19,73016.3,-18.23,-42.45,-43.55,0,*6F
1484614944.82,14212,5.19,73018.5,-18.23,-42.51,-43.75,0,*6B
1484614946.12,14213,5.19,73016.8,-18.23,-42.45,-43.55,0,*6D
1484614947.42,14214,5.19,73016.3,-18.23,-42.31,-43.67,0,*68
1484614948.65,14215,5.19,73016.8,-18.21,-42.25,-43.61,0,*68
1484614949.87,14216,5.19,73018.3,-18.21,-42.25,-43.61,0,*6B
1484614951.09,14217,5.19,73016.0,-18.21,-42.25,-43.61,0,*6A
1484614952.31,14218,5.19,73016.8,-18.21,-42.37,-43.49,0,*6C
1484614953.54,14219,5.19,73018.8,-18.21,-42.37,-43.49,0,*6D
1484614954.78,14220,5.19,73018.0,-18.19,-42.37,-43.61,0,*66
1484614956.03,14221,5.19,73020.0,-18.19,-42.25,-43.41,0,*66
1484614957.27,14222,5.19,73020.8,-18.19,-42.37,-43.61,0,*64
1484614958.53,14223,5.19,73016.8,-18.21,-42.19,-43.41,0,*60
1484614959.77,14224,5.19,73016.0,-18.19,-42.25,-43.49,0,*6B
1484614960.99,14225,5.19,73016.5,-18.21,-42.25,-43.49,0,*61
1484614962.24,14226,5.19,73016.5,-18.19,-42.37,-43.61,0,*60
1484614963.48,14227,5.19,73018.5,-18.19,-42.37,-43.49,0,*6B
1484614964.71,14228,5.19,73016.3,-18.17,-42.37,-43.81,0,*6E
1484614965.95,14229,5.19,73016.3,-18.17,-42.37,-43.81,0,*6F
1484614967.21,14230,5.19,73020.3,-18.19,-42.37,-43.81,0,*69
1484614968.45,14231,5.19,73020.8,-18.19,-42.25,-43.49,0,*6F
1484614969.67,14232,5.19,73018.3,-18.17,-42.25,-43.61,0,*68
1484614970.92,14233,5.19,73018.3,-18.17,-42.19,-43.61,0,*66
1484614972.16,14234,5.19,73018.3,-18.17,-42.37,-43.67,0,*6B
1484614973.37,14235,5.19,73020.5,-18.17,-42.25,-43.61,0,*6F
1484614974.59,14236,5.19,73018.0,-18.17,-42.25,-43.61,0,*6C
1484614975.86,14237,5.19,73018.3,-18.17,-42.31,-43.67,0,*6E
1484614977.14,14238,5.19,73016.3,-18.15,-42.19,-43.41,0,*6D
1484614978.35,14239,5.19,73016.3,-18.17,-42.37,-43.61,0,*60
1484614979.57,14240,5.19,73016.3,-18.17,-42.25,-43.61,0,*6D
1484614980.86,14241,5.19,73018.0,-18.15,-42.31,-43.55,0,*6C
1484614982.1,14242,5.19,73016.0,-18.17,-42.31,-43.61,0,*6A
1484614983.38,14243,5.19,73018.8,-18.15,-42.31,-43.41,0,*6B
1484614984.68,14244,5.19,73016.8,-18.15,-42.31,-43.55,0,*69
1484614985.89,14245,5.19,73022.8,-18.17,-42.25,-43.61,0,*68
1484614987.19,14246,5.19,73018.5,-18.15,-42.31,-43.55,0,*6B
1484614988.49,14247,5.19,73018.3,-18.15,-42.19,-43.55,0,*60
1484614989.77,14248,5.19,73016.8,-18.15,-42.19,-43.35,0,*69
1484614990.99,14249,5.19,73020.3,-18.11,-42.13,-43.49,0,*6D
1484614992.22,14250,5.19,73016.0,-18.11,-42.13,-43.35,0,*6E
1484614993.47,14251,5.19,73018.8,-18.11,-42.05,-43.35,0,*68
1484614994.76,14252,5.19,73018.8,-18.09,-42.05,-43.29,0,*6F
1484614996.01,14253,5.19,73018.8,-18.09,-42.25,-43.35,0,*61
1484614997.25,14254,5.19,73018.0,-18.09,-42.13,-43.49,0,*68
1484614998.53,14255,5.19,73016.0,-18.09,-42.05,-43.35,0,*65
1484614999.75,14256,5.19,73018.8,-18.11,-42.25,-43.49,0,*66
1484615001.0,14257,5.19,73016.5,-18.09,-42.25,-43.49,0,*6E
1484615002.25,14258,5.19,73016.8,-18.09,-42.13,-43.49,0,*64
1484615003.49,14259,5.19,73020.0,-18.09,-42.13,-43.49,0,*65
1484615004.74,14260,5.19,73018.3,-18.09,-42.25,-43.49,0,*6A
1484615005.99,14261,5.19,73020.0,-18.09,-42.13,-43.49,0,*6E
1484615007.24,14262,5.19,73016.0,-18.09,-42.13,-43.35,0,*66
1484615008.49,14263,5.19,73016.0,-18.09,-42.13,-43.49,0,*6C
1484615009.74,14264,5.19,73016.8,-18.09,-42.13,-43.49,0,*6B
1484615010.99,14265,5.19,73018.5,-18.09,-42.25,-43.49,0,*6F
1484615012.26,14266,5.19,73016.5,-18.09,-42.25,-43.55,0,*61
1484615013.51,14267,5.19,73016.8,-18.09,-42.13,-43.35,0,*63
1484615014.76,14268,5.19,73016.5,-18.09,-42.13,-43.35,0,*6C
1484615016.03,14269,5.19,73016.8,-18.09,-41.87,-43.09,0,*6C
1484615017.3,14270,5.19,73016.5,-18.09,-41.93,-43.15,0,*6C
1484615018.6,14271,5.19,73018.8,-18.09,-42.05,-43.29,0,*6E
1484615019.85,14272,5.19,73016.8,-18.09,-42.13,-43.35,0,*67
1484615021.1,14273,5.19,73016.3,-18.07,-42.05,-43.41,0,*6C
1484615022.35,14274,5.19,73016.5,-18.09,-42.13,-43.49,0,*6A
1484615023.62,14275,5.19,73016.8,-18.05,-42.05,-43.61,0,*6A
1484615024.85,14276,5.19,73018.3,-18.07,-41.99,-43.41,0,*6F
1484615026.12,14277,5.19,73018.8,-18.05,-41.99,-43.29,0,*62
1484615027.37,14278,5.19,73014.5,-18.07,-41.87,-43.09,0,*62
1484615028.62,14279,5.19,73016.8,-18.07,-41.87,-43.09,0,*63
1484615029.87,14280,5.19,73020.8,-18.07,-41.67,-43.01,0,*63
1484615031.14,14281,5.19,73016.8,-18.05,-41.99,-43.29,0,*6B
1484615032.44,14282,5.19,73016.8,-18.05,-42.05,-43.21,0,*66
1484615033.73,14283,5.19,73018.8,-18.05,-41.81,-43.21,0,*68
1484615035.01,14284,5.19,73016.3,-18.05,-42.19,-43.41,0,*6B
1484615036.29,14285,5.19,73014.5,-18.05,-42.05,-43.41,0,*67
1484615037.57,14286,5.19,73018.8,-18.05,-42.19,-43.41,0,*69
1484615038.84,14287,5.19,73018.8,-18.05,-42.05,-43.41,0,*65
1484615040.09,14288,5.19,73018.0,-18.01,-42.13,-43.35,0,*6A
1484615041.36,14289,5.19,73018.5,-18.05,-41.99,-43.29,0,*63
1484615042.61,14290,5.19,73018.0,-18.01,-42.13,-43.35,0,*63
1484615043.87,14291,5.19,73016.5,-17.99,-41.93,-43.21,0,*62
1484615045.12,14292,5.19,73022.5,-18.01,-41.99,-43.35,0,*60
1484615046.37,14293,5.19,73018.5,-18.01,-42.13,-43.41,0,*63
1484615047.63,14294,5.19,73022.0,-18.01,-41.99,-43.21,0,*63
1484615048.92,14295,5.19,73018.3,-18.05,-42.05,-43.29,0,*68
1484615050.15,14296,5.19,73018.0,-17.99,-42.13,-43.35,0,*6B
1484615051.39,14297,5.19,73018.0,-17.99,-41.99,-43.21,0,*6E
1484615052.63,14298,5.19,73016.3,-17.99,-42.13,-43.21,0,*60
1484615053.85,14299,5.19,73016.3,-17.99,-41.99,-43.41,0,*66
1484615055.07,14300,5.19,73016.8,-17.99,-41.99,-43.35,0,*64
1484615056.3,14301,5.19,73016.0,-17.99,-42.13,-43.35,0,*64
1484615057.55,14302,5.19,73020.3,-17.99,-41.93,-43.41,0,*6F
1484615058.77,14303,5.19,73018.0,-17.99,-42.13,-43.41,0,*65
1484615060.0,14304,5.19,73016.8,-17.99,-42.13,-43.41,0,*62
1484615061.26,14305,5.19,73020.0,-17.97,-42.05,-43.49,0,*62
1484615062.54,14306,5.19,73020.0,-17.97,-41.93,-43.35,0,*66
1484615063.81,14307,5.19,73018.0,-17.97,-42.05,-43.35,0,*6B
1484615065.08,14308,5.19,73018.5,-17.97,-42.05,-43.35,0,*64
1484615066.35,14309,5.19,73020.5,-17.97,-42.05,-43.35,0,*65
1484615067.57,14310,5.19,73016.5,-17.99,-42.13,-43.61,0,*65
1484615068.82,14311,5.19,73016.8,-17.99,-42.13,-43.55,0,*63
1484615070.11,14312,5.19,73018.0,-17.97,-41.93,-43.29,0,*6E
1484615071.36,14313,5.19,73016.8,-17.99,-41.87,-43.29,0,*64
1484615072.62,14314,5.19,73016.3,-17.97,-42.05,-43.49,0,*62
1484615073.85,14315,5.19,73020.5,-17.99,-42.13,-43.41,0,*62
1484615075.12,14316,5.19,73016.8,-17.97,-41.87,-43.29,0,*6F
1484615076.41,14317,5.19,73018.5,-17.97,-42.05,-43.29,0,*67
1484615077.68,14318,5.19,73020.5,-17.97,-42.05,-43.35,0,*65
1484615078.92,14319,5.19,73022.5,-17.95,-42.05,-43.49,0,*6D
1484615080.19,14320,5.19,73016.3,-17.97,-41.93,-43.35,0,*62
1484615081.42,14321,5.19,73016.0,-17.99,-42.13,-43.41,0,*65
1484615082.69,14322,5.19,73020.3,-17.97,-42.05,-43.35,0,*6C
1484615083.96,14323,5.19,73018.3,-17.97,-41.93,-43.35,0,*61
1484615085.23,14324,5.19,73018.8,-17.95,-42.05,-43.55,0,*6E
1484615086.47,14325,5.19,73020.3,-17.95,-42.05,-43.35,0,*69
1484615087.71,14326,5.19,73014.0,-17.95,-42.05,-43.49,0,*61
1484615088.96,14327,5.19,73018.5,-17.93,-41.87,-43.41,0,*67
1484615090.23,14328,5.19,73018.8,-17.95,-41.93,-43.29,0,*65
1484615091.47,14329,5.19,73016.3,-17.95,-41.93,-43.35,0,*69
1484615092.74,14330,5.19,73018.3,-17.95,-42.05,-43.29,0,*60
1484615093.98,14331,5.19,73018.3,-17.95,-42.05,-43.49,0,*67
1484615095.25,14332,5.19,73018.8,-17.95,-41.93,-43.29,0,*6E
1484615096.51,14333,5.19,73018.0,-17.93,-41.99,-43.29,0,*63
1484615097.77,14334,5.19,73018.5,-17.93,-41.99,-43.21,0,*6C
1484615099.01,14335,5.19,73018.5,-17.95,-42.05,-43.49,0,*63
1484615100.25,14336,5.19,73020.0,-17.93,-41.99,-43.49,0,*60
1484615101.5,14337,5.19,73016.3,-17.95,-41.93,-43.35,0,*66
1484615102.74,14338,5.19,73020.8,-17.95,-42.05,-43.49,0,*6E
1484615103.99,14339,5.19,73016.3,-17.93,-41.99,-43.41,0,*67
1484615105.23,14340,5.19,73016.3,-17.93,-41.99,-43.61,0,*6B
1484615106.47,14341,5.19,73018.5,-17.93,-41.99,-43.49,0,*60
1484615107.71,14342,5.19,73020.0,-17.93,-41.99,-43.41,0,*6B
1484615108.95,14343,5.19,73018.0,-17.93,-41.99,-43.41,0,*6A
1484615110.2,14344,5.19,73016.0,-17.89,-41.99,-43.41,0,*66
1484615111.44,14345,5.19,73016.8,-17.93,-41.99,-43.41,0,*6C
1484615112.69,14346,5.19,73020.0,-17.95,-42.13,-43.55,0,*6D
1484615113.96,14347,5.19,73018.8,-17.93,-42.05,-43.61,0,*6A
1484615115.23,14348,5.19,73016.3,-17.93,-42.19,-43.61,0,*68
1484615116.47,14349,5.19,73018.3,-17.93,-41.99,-43.41,0,*60
1484615117.71,14350,5.19,73018.8,-17.93,-41.99,-43.41,0,*68
1484615118.98,14351,5.19,73020.5,-17.93,-41.99,-43.29,0,*67
1484615120.22,14352,5.19,73022.5,-17.93,-41.87,-43.01,0,*61
1484615121.46,14353,5.19,73018.5,-17.93,-41.87,-43.01,0,*60
1484615122.73,14354,5.19,73016.3,-17.93,-41.87,-43.09,0,*6F
1484615123.99,14355,5.19,73020.8,-17.93,-41.99,-43.21,0,*6B
1484615125.29,14356,5.19,73016.3,-17.89,-41.93,-43.29,0,*61
1484615126.55,14357,5.19,73018.3,-17.89,-41.99,-43.29,0,*6A
1484615127.77,14358,5.19,73018.5,-17.87,-41.99,-43.35,0,*66
1484615129.03,14359,5.19,73018.0,-17.89,-41.87,-43.21,0,*63
1484615130.3,14360,5.19,73016.8,-17.89,-41.87,-43.21,0,*69
1484615131.52,14361,5.19,73018.3,-17.87,-41.99,-43.41,0,*6F
1484615132.78,14362,5.19,73022.3,-17.89,-41.99,-43.29,0,*6C
1484615134.05,14363,5.19,73016.3,-17.89,-41.99,-43.29,0,*6D
1484615135.29,14364,5.19,73018.3,-17.87,-41.93,-43.35,0,*63
1484615136.56,14365,5.19,73022.0,-17.89,-41.99,-43.29,0,*6B
1484615137.82,14366,5.19,73018.5,-17.89,-41.99,-43.29,0,*68
1484615139.07,14367,5.19,73018.0,-17.89,-41.99,-43.41,0,*67
1484615140.33,14368,5.19,73018.8,-17.89,-41.99,-43.29,0,*66
1484615141.57,14369,5.19,73022.5,-17.87,-41.99,-43.21,0,*61
1484615142.86,14370,5.19,73016.5,-17.89,-42.19,-43.29,0,*64
1484615144.13,14371,5.19,73018.3,-17.89,-42.05,-43.41,0,*66
1484615145.4,14372,5.19,73016.5,-17.87,-41.81,-43.21,0,*62
1484615146.66,14373,5.19,73018.8,-17.87,-41.93,-43.21,0,*60
1484615147.93,14374,5.19,73020.3,-17.87,-41.93,-43.21,0,*67
1484615149.19,14375,5.19,73018.3,-17.87,-41.81,-43.21,0,*65
1484615150.46,14376,5.19,73016.5,-17.89,-41.99,-43.29,0,*69
1484615151.72,14377,5.19,73016.0,-17.87,-41.81,-43.21,0,*67
1484615152.96,14378,5.19,73018.5,-17.87,-41.93,-43.01,0,*69
1484615154.21,14379,5.19,73020.3,-17.87,-41.81,-43.15,0,*6E
1484615155.42,14380,5.19,73016.0,-17.87,-41.73,-43.01,0,*60
1484615156.66,14381,5.19,73018.5,-17.87,-41.93,-43.15,0,*6A
1484615157.93,14382,5.19,73018.0,-17.85,-41.93,-43.15,0,*6B
1484615159.19,14383,5.19,73016.3,-17.85,-41.81,-43.15,0,*69
1484615160.45,14384,5.19,73022.0,-17.85,-41.81,-43.15,0,*6E
1484615161.71,14385,5.19,73018.3,-17.85,-41.61,-42.83,0,*6F
1484615162.95,14386,5.19,73022.5,-17.85,-41.73,-43.01,0,*64
1484615164.24,14387,5.19,73016.5,-17.85,-41.81,-43.21,0,*6A
1484615165.5,14388,5.19,73016.3,-17.85,-41.93,-43.15,0,*61
1484615166.76,14389,5.19,73018.8,-17.85,-41.81,-43.01,0,*66
1484615168.0,14390,5.19,73018.5,-17.85,-41.73,-43.15,0,*66
1484615169.26,14391,5.19,73022.5,-17.85,-41.93,-43.15,0,*69
1484615170.55,14392,5.19,73020.8,-17.85,-41.93,-43.21,0,*6D
1484615171.81,14393,5.19,73022.3,-17.85,-41.81,-43.15,0,*68
1484615173.07,14394,5.19,73020.8,-17.85,-41.81,-43.15,0,*6F
1484615174.34,14395,5.19,73016.3,-17.85,-41.93,-43.01,0,*68
1484615175.6,14396,5.19,73022.0,-17.85,-41.81,-43.15,0,*6D
1484615176.86,14397,5.19,73016.8,-17.85,-41.93,-43.15,0,*6F
1484615178.13,14398,5.19,73018.8,-17.85,-41.81,-43.15,0,*63
1484615179.39,14399,5.19,73022.8,-17.85,-41.93,-43.15,0,*61
1484615180.65,14400,5.19,73022.3,-17.85,-41.81,-43.15,0,*65
1484615181.94,14401,5.19,73014.8,-17.85,-41.93,-43.21,0,*60
1484615183.18,14402,5.19,73018.5,-17.85,-41.99,-43.15,0,*6E
1484615184.45,14403,5.19,73022.5,-17.79,-41.67,-43.01,0,*68
1484615185.7,14404,5.19,73018.3,-17.83,-41.87,-42.95,0,*68
1484615186.97,14405,5.19,73020.3,-17.79,-41.67,-43.01,0,*6E
1484615188.21,14406,5.19,73018.8,-17.83,-41.73,-43.09,0,*65
1484615189.48,14407,5.19,73018.0,-17.79,-41.81,-42.89,0,*65
1484615190.73,14408,5.19,73018.3,-17.83,-41.87,-43.09,0,*60
1484615192.0,14409,5.19,73022.8,-17.79,-41.67,-42.89,0,*63
1484615193.27,14410,5.19,73018.5,-17.79,-41.81,-43.01,0,*62
1484615194.51,14411,5.19,73020.3,-17.79,-41.87,-43.01,0,*65
1484615195.79,14412,5.19,73022.0,-17.79,-41.67,-43.01,0,*68
1484615197.03,14413,5.19,73018.5,-17.83,-41.73,-42.95,0,*65
1484615198.3,14414,5.19,73016.8,-17.79,-41.81,-43.01,0,*66
1484615199.6,14415,5.19,73020.3,-17.79,-41.81,-43.09,0,*6F
1484615200.87,14416,5.19,73016.3,-17.83,-41.93,-43.29,0,*68
1484615202.11,14417,5.19,73018.5,-17.79,-41.87,-43.01,0,*63
1484615203.38,14418,5.19,73022.8,-17.79,-41.99,-43.29,0,*69
1484615204.65,14419,5.19,73020.8,-17.79,-41.99,-43.21,0,*60
1484615205.89,14420,5.19,73018.5,-17.77,-41.87,-43.29,0,*63
1484615207.14,14421,5.19,73020.0,-17.77,-41.99,-43.29,0,*6D
1484615208.38,14422,5.19,73022.8,-17.77,-41.99,-43.29,0,*6E
1484615209.62,14423,5.19,73018.8,-17.77,-41.99,-43.21,0,*67
1484615210.87,14424,5.19,73018.3,-17.77,-41.87,-43.09,0,*65
1484615212.12,14425,5.19,73016.3,-17.77,-41.87,-43.09,0,*64
1484615213.37,14426,5.19,73018.8,-17.77,-41.99,-43.21,0,*62
1484615214.64,14427,5.19,73018.0,-17.77,-41.93,-43.21,0,*69
1484615215.91,14428,5.19,73020.0,-17.75,-41.81,-43.15,0,*60
1484615217.16,14429,5.19,73018.5,-17.77,-41.87,-43.21,0,*62
1484615218.4,14430,5.19,73020.5,-17.77,-41.99,-43.29,0,*6D
1484615219.65,14431,5.19,73022.3,-17.77,-41.87,-43.21,0,*6B
1484615220.9,14432,5.19,73020.5,-17.77,-41.87,-43.09,0,*62
1484615222.14,14433,5.19,73022.5,-17.77,-41.99,-43.21,0,*66
1484615223.38,14434,5.19,73022.0,-17.77,-41.99,-43.21,0,*61
1484615224.63,14435,5.19,73022.8,-17.77,-41.99,-43.09,0,*6A
1484615225.9,14436,5.19,73020.0,-17.75,-41.81,-43.01,0,*6A
1484615227.18,14437,5.19,73018.8,-17.77,-41.81,-43.09,0,*61
1484615228.43,14438,5.19,73016.8,-17.75,-41.73,-42.89,0,*68
1484615229.67,14439,5.19,73020.0,-17.77,-41.81,-43.01,0,*67
1484615230.94,14440,5.19,73020.0,-17.77,-41.81,-42.83,0,*62
1484615232.24,14441,5.19,73020.0,-17.75,-41.55,-42.83,0,*68
1484615233.49,14442,5.19,73022.3,-17.75,-41.73,-42.75,0,*66
1484615234.75,14443,5.19,73020.5,-17.75,-41.73,-42.75,0,*67
1484615236.02,14444,5.19,73020.5,-17.75,-41.73,-42.95,0,*6E
1484615237.3,14445,5.19,73018.8,-17.75,-41.61,-42.83,0,*6B
1484615238.58,14446,5.19,73020.3,-17.75,-41.73,-42.95,0,*6C
1484615239.8,14447,5.19,73018.0,-17.77,-41.87,-43.01,0,*68
1484615241.11,14448,5.19,73022.3,-17.75,-41.81,-42.95,0,*6F
1484615242.35,14449,5.19,73018.5,-17.75,-41.73,-43.01,0,*6F
1484615243.57,14450,5.19,73020.0,-17.73,-41.73,-43.01,0,*61
1484615244.82,14451,5.19,73016.3,-17.73,-41.73,-42.95,0,*6C
1484615246.07,14452,5.19,73022.5,-17.73,-41.81,-43.01,0,*6E
1484615247.29,14453,5.19,73020.3,-17.73,-41.73,-42.75,0,*60
1484615248.54,14454,5.19,73020.0,-17.73,-41.73,-42.95,0,*69
1484615249.79,14455,5.19,73022.8,-17.73,-41.81,-43.15,0,*6C
1484615251.04,14456,5.19,73020.8,-17.73,-41.93,-43.01,0,*69
1484615252.28,14457,5.19,73020.3,-17.73,-41.93,-43.15,0,*6D
1484615253.5,14458,5.19,73022.5,-17.73,-41.99,-43.15,0,*68
1484615254.75,14459,5.19,73020.8,-17.73,-41.93,-43.15,0,*63
1484615256.0,14460,5.19,73018.0,-17.73,-41.93,-43.01,0,*6C
1484615257.3,14461,5.19,73022.5,-17.75,-41.81,-42.83,0,*63
1484615258.6,14462,5.19,73022.8,-17.75,-41.81,-42.95,0,*67
1484615259.85,14463,5.19,73020.0,-17.73,-41.73,-42.83,0,*6A
1484615261.11,14464,5.19,73018.0,-17.71,-41.73,-42.83,0,*6F
1484615262.35,14465,5.19,73022.8,-17.73,-41.73,-42.83,0,*6C
1484615263.6,14466,5.19,73020.3,-17.73,-41.73,-42.83,0,*6F
1484615264.85,14467,5.19,73016.5,-17.73,-41.73,-42.95,0,*69
1484615266.09,14468,5.19,73018.8,-17.73,-41.73,-42.83,0,*61
1484615267.33,14469,5.19,73016.8,-17.73,-41.73,-42.83,0,*60
1484615268.58,14470,5.19,73018.8,-17.71,-41.61,-42.75,0,*60
1484615269.85,14471,5.19,73018.0,-17.71,-41.73,-42.83,0,*6B
1484615271.15,14472,5.19,73020.0,-17.71,-41.81,-42.95,0,*62
1484615272.43,14473,5.19,73020.8,-17.71,-41.81,-43.01,0,*6F
1484615273.68,14474,5.19,73022.3,-17.73,-41.73,-42.95,0,*6B
1484615274.94,14475,5.19,73016.3,-17.71,-41.73,-42.83,0,*6F
1484615276.21,14476,5.19,73018.0,-17.71,-41.73,-42.83,0,*6C
1484615277.48,14477,5.19,73018.3,-17.71,-41.93,-43.01,0,*68
1484615278.76,14478,5.19,73016.5,-17.71,-41.93,-43.15,0,*62
1484615280.03,14479,5.19,73016.3,-17.67,-41.87,-43.09,0,*6C
1484615281.28,14480,5.19,73022.0,-17.67,-41.87,-42.89,0,*63
1484615282.53,14481,5.19,73020.3,-17.67,-41.87,-42.89,0,*62
1484615283.81,14482,5.19,73020.0,-17.67,-41.73,-42.95,0,*67
1484615285.09,14483,5.19,73022.3,-17.67,-41.67,-42.75,0,*6D
1484615286.36,14484,5.19,73022.3,-17.71,-41.81,-42.75,0,*65
1484615287.61,14485,5.19,73018.8,-17.67,-41.73,-42.89,0,*6D
1484615288.86,14486,5.19,73018.8,-17.67,-41.87,-42.75,0,*66
1484615290.16,14487,5.19,73020.5,-17.71,-41.81,-42.95,0,*68
1484615291.41,14488,5.19,73020.0,-17.67,-41.73,-42.89,0,*60
1484615292.63,14489,5.19,73020.0,-17.65,-41.73,-42.75,0,*60
1484615293.91,14490,5.19,73018.3,-17.67,-41.67,-42.75,0,*6F
1484615295.18,14491,5.19,73022.3,-17.65,-41.67,-42.69,0,*61
1484615296.45,14492,5.19,73026.3,-17.65,-41.55,-42.57,0,*6E
1484615297.74,14493,5.19,73020.5,-17.67,-41.67,-42.57,0,*6C
1484615299.04,14494,5.19,73022.3,-17.67,-41.55,-42.57,0,*6A
1484615300.31,14495,5.19,73020.8,-17.65,-41.67,-42.57,0,*68
1484615301.55,14496,5.19,73022.3,-17.65,-41.55,-42.51,0,*6C
1484615302.8,14497,5.19,73020.3,-17.65,-41.67,-42.89,0,*69